KC0OOO-WX Weather Reports


time (UTC)temp
F
wind
direction
speed
knots
gust
knots
rain 1hr
in
rain 24hr
in
rain mn
in
humidity
%
barometer
mb
20260505140235 41 263 0.0 2.6 0.00 0.00 0.00 60 1015.2
20260505130235 38 261 0.0 2.6 0.00 0.00 0.00 62 1015.2
20260505124235 38 261 0.0 2.6 0.00 0.00 0.00 61 1015.2
20260505123235 38 261 0.0 2.6 0.00 0.00 0.00 59 1015.2
20260505122235 38 261 0.0 2.6 0.00 0.00 0.00 60 1015.2
20260505121234 38 261 0.0 2.6 0.00 0.00 0.00 59 1015.2
20260505120235 39 261 0.0 2.6 0.00 0.00 0.00 57 1015.2
20260505115234 39 261 0.0 2.6 0.00 0.00 0.00 58 1015.2
20260505114234 39 261 0.0 2.6 0.00 0.00 0.00 58 1015.2
20260505113234 39 261 0.0 2.6 0.00 0.00 0.00 58 1015.2
20260505112234 39 261 0.0 2.6 0.00 0.00 0.00 59 1015.2
20260505111234 39 261 0.0 2.6 0.00 0.00 0.00 57 1015.2
20260505110204 39 261 0.0 2.6 0.00 0.00 0.00 57 1015.2
20260505102204 40 254 0.0 2.6 0.00 0.00 0.00 55 1014.6
20260505101204 40 254 0.0 2.6 0.00 0.00 0.00 57 1014.6
20260505100204 40 254 0.0 2.6 0.00 0.00 0.00 56 1014.9
20260505095204 40 296 0.0 2.6 0.00 0.00 0.00 56 1014.9
20260505094204 40 296 0.0 2.6 0.00 0.00 0.00 56 1014.9
20260505093204 40 296 0.0 2.6 0.00 0.00 0.00 57 1014.9
20260505092204 40 186 0.0 2.6 0.00 0.00 0.00 57 1014.9
20260505091204 40 230 0.0 2.6 0.00 0.00 0.00 58 1014.9
20260505090203 40 274 0.0 2.6 0.00 0.00 0.00 59 1014.9
20260505085203 40 116 0.0 2.6 0.00 0.00 0.00 61 1014.9
20260505084203 41 122 0.0 2.6 0.00 0.00 0.00 60 1015.2
20260505083203 41 48 0.0 2.6 0.00 0.00 0.00 59 1015.2
20260505082203 42 86 0.9 2.6 0.00 0.00 0.00 57 1015.2
20260505081203 41 279 0.0 1.7 0.00 0.00 0.00 52 1015.2
20260505080203 41 279 0.0 1.7 0.00 0.00 0.00 56 1015.2
20260505075203 41 279 0.0 1.7 0.00 0.00 0.00 57 1015.2
20260505074203 41 279 0.0 1.7 0.00 0.00 0.00 57 1015.2
20260505073203 41 279 0.0 1.7 0.00 0.00 0.00 58 1015.2
20260505072203 41 279 0.0 1.7 0.00 0.00 0.00 57 1015.2
20260505071203 41 279 0.0 1.7 0.00 0.00 0.00 56 1015.2
20260505070203 41 279 0.0 1.7 0.00 0.00 0.00 54 1015.2
20260505065203 42 279 0.0 1.7 0.00 0.00 0.00 55 1015.2
20260505064203 42 279 0.0 1.7 0.00 0.00 0.00 54 1014.9
20260505063203 42 279 0.0 1.7 0.00 0.00 0.00 54 1014.9
20260505062203 43 279 0.0 1.7 0.00 0.00 0.00 53 1014.9
20260505061203 43 279 0.0 1.7 0.00 0.00 0.00 51 1014.9
20260505060203 43 279 0.0 0.0 0.00 0.00 0.00 52 1014.9
20260505055203 43 279 0.0 13.0 0.00 0.00 0.00 51 1014.9
20260505054203 44 279 0.9 13.0 0.00 0.00 0.00 51 1015.2
20260505053133 44 279 0.0 13.0 0.00 0.00 0.00 50 1015.2
20260505052132 45 279 0.0 13.0 0.00 0.00 0.00 48 1015.2
20260505051132 45 279 0.0 13.0 0.00 0.00 0.00 47 1015.2
20260505050132 46 279 0.0 13.0 0.00 0.00 0.00 46 1015.2
20260505041132 48 280 0.0 13.0 0.00 0.00 0.00 43 1015.2
20260505040132 48 280 0.0 13.0 0.00 0.00 0.00 42 1015.2
20260505035132 49 280 0.0 13.0 0.00 0.00 0.00 40 1015.2
20260505034132 49 280 0.0 13.0 0.00 0.00 0.00 40 1015.2
20260505033132 50 281 0.0 13.0 0.00 0.00 0.00 39 1015.2
20260505032132 50 280 0.0 13.0 0.00 0.00 0.00 40 1015.2
20260505031132 51 280 0.9 13.0 0.00 0.00 0.00 38 1014.9
20260505030132 51 280 0.9 13.0 0.00 0.00 0.00 37 1014.9
20260505025102 52 280 0.9 13.0 0.00 0.00 0.00 38 1014.9
20260505024102 52 280 0.9 13.0 0.00 0.00 0.00 37 1014.9
20260505023102 53 280 0.9 13.0 0.00 0.00 0.00 37 1014.9
20260505022102 54 280 0.9 13.0 0.00 0.00 0.00 36 1014.9
20260505021102 55 280 0.9 13.0 0.00 0.00 0.00 34 1014.9
20260505015102 57 281 0.0 13.0 0.00 0.00 0.00 32 1014.6
20260505014102 58 281 0.0 13.0 0.00 0.00 0.00 30 1014.6
20260505013102 58 280 0.9 13.0 0.00 0.00 0.00 27 1014.6
20260505012102 59 316 0.0 13.0 0.00 0.00 0.00 26 1014.6
20260505011102 59 249 0.0 13.0 0.00 0.00 0.00 28 1014.9
20260505010032 59 265 0.9 13.0 0.00 0.00 0.00 26 1014.9
20260505005032 60 270 1.7 13.0 0.00 0.00 0.00 26 1015.2
20260505004032 60 315 1.7 13.0 0.00 0.00 0.00 26 1015.2
20260505003032 61 269 4.3 13.0 0.00 0.00 0.00 24 1015.2
20260505002031 61 171 1.7 13.0 0.00 0.00 0.00 24 1015.2
20260505001032 61 248 1.7 13.0 0.00 0.00 0.00 25 1015.2
20260505000031 62 219 0.9 13.0 0.00 0.00 0.00 26 1015.2
20260504235031 63 259 4.3 13.0 0.00 0.00 0.00 24 1015.2
20260504234031 64 237 4.3 13.0 0.00 0.00 0.00 24 1015.2
20260504233031 63 181 4.3 13.0 0.00 0.00 0.00 25 1014.9
20260504232031 63 201 1.7 13.0 0.00 0.00 0.00 26 1015.2
20260504231031 63 131 0.9 13.0 0.00 0.00 0.00 26 1015.2
20260504230031 62 212 4.3 13.0 0.00 0.00 0.00 26 1015.2
20260504225031 63 231 0.9 13.0 0.00 0.00 0.00 28 1015.2
20260504224031 63 251 1.7 13.0 0.00 0.00 0.00 27 1015.2
20260504223031 63 326 2.6 13.0 0.00 0.00 0.00 27 1015.2
20260504222031 63 256 1.7 13.0 0.00 0.00 0.00 27 1015.2
20260504221031 64 298 6.1 13.0 0.00 0.00 0.00 25 1015.6
20260504220031 66 210 2.6 13.0 0.00 0.00 0.00 26 1015.6
20260504215031 64 210 0.9 13.0 0.00 0.00 0.00 29 1015.9
20260504214031 66 282 4.3 13.0 0.00 0.00 0.00 27 1015.9
20260504213031 64 231 2.6 11.3 0.00 0.00 0.00 30 1016.3
20260504212031 63 270 4.3 11.3 0.00 0.00 0.00 28 1016.3
20260504211031 63 256 5.2 11.3 0.00 0.00 0.00 29 1016.6
20260504210031 63 293 1.7 11.3 0.00 0.00 0.00 33 1016.6
20260504205030 62 204 1.7 11.3 0.00 0.00 0.00 32 1016.9
20260504204030 62 220 4.3 11.3 0.00 0.00 0.00 32 1016.9
20260504203030 63 289 5.2 11.3 0.00 0.00 0.00 34 1016.6
20260504202030 64 302 0.9 11.3 0.00 0.00 0.00 34 1016.6
20260504201030 63 191 1.7 11.3 0.00 0.00 0.00 34 1016.6
20260504200030 62 33 1.7 11.3 0.00 0.00 0.00 35 1016.6
20260504195030 61 267 1.7 11.3 0.00 0.00 0.00 36 1016.9
20260504194030 62 234 1.7 11.3 0.00 0.00 0.00 36 1016.9
20260504193030 61 149 0.9 11.3 0.00 0.00 0.00 40 1017.3
20260504192030 61 233 0.9 11.3 0.00 0.00 0.00 39 1017.3
20260504191030 60 253 2.6 11.3 0.00 0.00 0.00 39 1017.6
20260504190030 61 257 2.6 10.4 0.00 0.00 0.00 39 1017.6
20260504185030 60 170 0.9 7.8 0.00 0.00 0.00 42 1017.6
20260504184030 60 218 1.7 7.8 0.00 0.00 0.00 40 1017.6
20260504183030 60 229 1.7 7.0 0.00 0.00 0.00 42 1017.6
20260504182030 60 301 2.6 7.0 0.00 0.00 0.00 42 1017.6
20260504181030 60 262 2.6 7.0 0.00 0.00 0.00 40 1017.9
20260504180030 60 211 0.9 7.0 0.00 0.00 0.00 42 1017.9
20260504175030 60 174 1.7 4.3 0.00 0.00 0.00 47 1018.3
20260504174030 60 239 0.9 3.5 0.00 0.00 0.00 43 1018.3
20260504173030 59 154 0.9 3.5 0.00 0.00 0.00 46 1018.3
20260504172030 58 327 0.9 3.5 0.00 0.00 0.00 48 1018.3
20260504171030 57 206 0.0 3.5 0.00 0.00 0.00 50 1018.3
20260504150929 49 64 0.0 3.5 0.00 0.00 0.00 67 1019.0